This is the latest recevied weather packets stored in our database for station/object KE6YLF. If no packets are shown the sender has not sent any weather packets the latest 10 day(s).
| Time | Temp. | Humidity | Pressure | Rain* | Wind** | Luminosity | Snow |
|---|---|---|---|---|---|---|---|
| 1788456697 | 33.33° C | 45% | 1077.4 hPa | 0 mm | - | - | - |
| 1788456407 | 33.89° C | 45% | 1077.6 hPa | 0 mm | - | - | - |
| 1788456092 | 33.33° C | 46% | 1077.6 hPa | 0 mm | - | - | - |
| 1788455792 | 33.33° C | 47% | 1077.5 hPa | 0 mm | - | - | - |
| 1788455488 | 33.33° C | 47% | 1077.5 hPa | 0 mm | - | - | - |
| 1788455187 | 32.78° C | 48% | 1077.6 hPa | 0 mm | - | - | - |
| 1788454883 | 32.78° C | 49% | 1077.4 hPa | 0 mm | - | - | - |
| 1788454580 | 32.78° C | 50% | 1077.4 hPa | 0 mm | - | - | - |
| 1788454275 | 32.22° C | 50% | 1077.5 hPa | 0 mm | - | - | - |
| 1788453970 | 32.22° C | 50% | 1077.7 hPa | 0 mm | - | - | - |
| 1788453667 | 31.67° C | 51% | 1077.6 hPa | 0 mm | - | - | - |
| 1788453366 | 32.22° C | 50% | 1077.6 hPa | 0 mm | - | - | - |
| 1788453063 | 32.22° C | 49% | 1077.5 hPa | 0 mm | - | - | - |
| 1788452759 | 32.22° C | 50% | 1077.6 hPa | 0 mm | - | - | - |
| 1788452454 | 31.67° C | 52% | 1077.6 hPa | 0 mm | - | - | - |
| 1788452150 | 31.67° C | 52% | 1077.7 hPa | 0 mm | - | - | - |
| 1788451846 | 31.11° C | 53% | 1077.6 hPa | 0 mm | - | - | - |
| 1788451544 | 31.11° C | 54% | 1077.5 hPa | 0 mm | - | - | - |
| 1788451239 | 30.56° C | 54% | 1077.5 hPa | 0 mm | - | - | - |
| 1788450938 | 30.56° C | 55% | 1077.8 hPa | 0 mm | - | - | - |
| 1788450633 | 30.56° C | 55% | 1077.7 hPa | 0 mm | - | - | - |
| 1788450330 | 31.11° C | 54% | 1077.7 hPa | 0 mm | - | - | - |
| 1788450026 | 30.56° C | 55% | 1077.6 hPa | 0 mm | - | - | - |
| 1788449720 | 30.56° C | 56% | 1077.6 hPa | 0 mm | - | - | - |
| 1788449416 | 30.56° C | 55% | 1077.7 hPa | 0 mm | - | - | - |
* Rain latest hour (hover to see other rain measurements)
** Current wind speed in m/s (hover to see current wind gust speed)